Submittal Forms
Current Contests
Recent Contests

Club Activity Tracker - Deep Dixie Contest Club (from club selection on form)

Recent postings for the selected club or group are listed below. Other than the call used, all calls listed are only those associated with the club or group. Click on a call to see the details of the posting.
Status Key: new=new posting, update=update prior posting, move=change club/group, delete=delete prior posting.

Sort by   for past

TimestampCallContestClassPowerScoreStatus
2020-05-28 04:07:18AB0TXCWopsTSingle OpHP18,225new5615
2020-05-28 04:07:02N5PHTCWopsTSingle OpHP6,318new5615
2020-05-28 04:06:50N5EECWopsTSingle OpLP9,200new5615
2020-05-28 04:02:43W5TMCWopsTSingle OpHP16,080new5615
2020-05-28 04:02:38K4OAQCWopsTSingle OpLP8,536new5615
2020-05-28 04:01:52K4AFECWopsTSingle OpHP361new5615
2020-05-28 03:36:57N8BJQCWopsTSingle OpHP3,600new5615
2020-05-27 20:06:10WV4PCWopsTSingle OpHP4,224new5614
2020-05-27 20:02:05K4OAQCWopsTSingle OpLP11,440new5614
2020-05-27 20:01:23K0WACWopsTSingle OpHP23,716new5614
 
2020-05-27 19:53:49N5EECWopsTSingle OpLP6,889new5614
2020-05-27 19:45:01N5PHTCWopsTSingle OpHP1,520new5614
2020-05-27 15:02:34NN5OCWopsTSingle OpLP1,073new5613
2020-05-27 14:43:12N5EECWopsTSingle OpLP13,310new5613
2020-05-27 14:06:57N8BJQCWopsTSingle OpHP12,091new5613
2020-05-27 14:03:55K4OAQCWopsTSingle OpLP14,884new5613
2020-05-27 14:03:11W5TMCWopsTSingle OpHP13,456new5613
2020-05-27 14:02:02N5PHTCWopsTSingle OpHP6,561new5613
2020-05-27 14:00:58IT9MUOCWopsTSingle OpLP1,849new5613
2020-05-27 13:55:34IT9VDQ(@IB9T)CWopsTSingle OpLP3,249new5613
 
2020-05-25 00:06:06NR4L(@WV4P)YL DayYLHP563new5607
2020-05-23 06:15:40NN5OCWopsTSingle OpLP840new5594
2020-05-21 21:29:12K5XUCWopsTSingle OpLP3,420new5594
2020-05-21 21:26:41K5XUCWopsTSingle OpLP3,186new5593
2020-05-21 21:23:54K5XUCWopsTSingle OpLP2,805new5592
2020-05-21 04:05:58W5TMCWopsTSingle OpHP14,391new5594
2020-05-21 04:05:12N5EECWopsTSingle OpLP14,641new5594
2020-05-21 04:01:40N5PHTCWopsTSingle OpHP7,224new5594
2020-05-21 04:01:39N8BJQCWopsTSingle OpHP12,650new5594
2020-05-21 04:01:35K0WACWopsTSingle OpHP14,400new5594
 
2020-05-21 04:01:28WV4PCWopsTSingle OpHP1,760new5594
2020-05-20 20:30:29W5TMCWopsTSingle OpHP15,625new5593
2020-05-20 20:08:59N5EECWopsTSingle OpLP13,924new5593
2020-05-20 20:06:36NN5OCWopsTSingle OpLP2,856new5593
2020-05-20 20:02:53N8BJQCWopsTSingle OpHP20,449new5593
2020-05-20 20:02:23N5PHTCWopsTSingle OpHP3,969new5593
2020-05-20 20:01:42K0WACWopsTSingle OpHP24,964new5593
2020-05-20 20:00:49AA5WCWopsTSingle OpLP1,024new5593
2020-05-20 19:50:29K4AFECWopsTSingle OpHP1,120new5593
2020-05-20 18:15:41NN5OCWopsTSingle OpLP2,254new5592
 
2020-05-20 14:06:23N5EECWopsTSingle OpLP9,682new5592
2020-05-20 14:04:15W5TMCWopsTSingle OpHP12,064new5592
2020-05-20 14:02:50N5PHTCWopsTSingle OpHP10,000new5592
2020-05-20 13:38:55IT9MUOCWopsTSingle OpLP196new5592
2020-05-17 00:28:02W5TMHamventionSingle OpHP417new5569
2020-05-16 15:59:15K5XUCWopsTSingle OpLP3,480new5576
2020-05-16 15:56:00K5XUCWopsTSingle OpLP3,480new5575
2020-05-16 15:53:18K5XUCWopsTSingle OpLP3,596new5574
2020-05-14 05:34:18NN5OCWopsTSingle OpLP594new5576
2020-05-14 05:33:09NN5OCWopsTSingle OpLP2,562new5575
 
2020-05-14 05:31:51NN5OCWopsTSingle OpLP806new5574
2020-05-14 04:05:10N5EECWopsTSingle OpLP10,404new5576
2020-05-14 04:05:00W5TMCWopsTSingle OpHP20,449new5576
2020-05-14 04:03:55K0WACWopsTSingle OpHP15,376new5576
2020-05-14 04:02:49AB0TXCWopsTSingle OpHP17,424new5576
2020-05-14 04:01:59N5PHTCWopsTSingle OpHP4,624new5576
2020-05-14 04:01:34N8BJQCWopsTSingle OpHP12,096new5576
2020-05-14 03:40:19K4AFECWopsTSingle OpHP1,440new5576
2020-05-13 20:12:38AB0TXCWopsTSingle OpHP22,201new5575
2020-05-13 20:02:53W5TMCWopsTSingle OpHP16,384new5575
 
2020-05-13 20:02:02K0WACWopsTSingle OpHP20,164new5575
2020-05-13 19:55:50IT9MUOCWopsTSingle OpLP2,809new5575
2020-05-13 19:42:53N5EECWopsTSingle OpLP1,089new5575
2020-05-13 19:42:09N5PHTCWopsTSingle OpHP1,640new5575
2020-05-13 18:12:10K0WACWopsTSingle OpLP2,916new5574
2020-05-13 14:21:05N5PHTCWopsTSingle OpHP10,201new5574
2020-05-13 14:04:20W5TMCWopsTSingle OpHP12,769new5574
2020-05-13 14:03:02N5EECWopsTSingle OpLP13,328new5574
2020-05-13 14:01:57N8BJQCWopsTSingle OpHP13,888new5574
2020-05-13 13:55:53IT9MUOCWopsTSingle OpLP2,601new5574
 
2020-05-10 20:28:49K5XUCWopsTSingle OpLP3,538new5559
2020-05-10 20:26:15K5XUCWopsTSingle OpLP2,600new5558
2020-05-10 20:23:15K5XUCWopsTSingle OpLP2,499new5557
2020-05-10 15:29:24WV4PVolta RTTYSOABHP208,121,508new5563
2020-05-10 15:00:24N8BJQCQ-MSOSB/20CWHP80,577new5564
2020-05-10 14:52:28N4OGW50SprngSprntSingle OpLP150new5567
2020-05-10 04:25:44KD5DD(@NN5O)CQ-MSOABCWHP49,504new5564
2020-05-10 02:05:32W5TMArQPSOCWHP1,190new5565
2020-05-07 15:08:01IT9MUOCWopsTSingle OpLP484new5557
2020-05-07 04:07:56N5EECWopsTSingle OpLP16,129new5559
 
2020-05-07 04:04:25NN5OCWopsTSingle OpLP5,325new5559
2020-05-07 04:03:10N5PHTCWopsTSingle OpHP9,114new5559
2020-05-07 04:02:44W5TMCWopsTSingle OpHP20,736new5559
2020-05-07 04:02:31K0WACWopsTSingle OpLP13,689new5559
2020-05-07 04:02:26WB0SNDCWopsTSingle OpHP8,544new5559
2020-05-07 04:02:02K4OAQCWopsTSingle OpLP8,096new5559
2020-05-07 03:59:57WV4PCWopsTSingle OpHP3,192new5559
2020-05-07 03:13:44K4AFECWopsTSingle OpHP121new5559
2020-05-06 20:09:39K0WACWopsTSingle OpHP16,250new5558
2020-05-06 20:07:19N5EECWopsTSingle OpLP10,807new5558
 
2020-05-06 20:02:49N5PHTCWopsTSingle OpHP4,032new5558
2020-05-06 20:02:30NN5OCWopsTSingle OpLP144new5558
2020-05-06 20:02:00K4OAQCWopsTSingle OpLP9,409new5558
2020-05-06 20:01:50W5TMCWopsTSingle OpHP14,400new5558
2020-05-06 19:58:02N8BJQCWopsTSingle OpHP10,000new5558
2020-05-06 19:26:48K4AFECWopsTSingle OpHP100new5558
2020-05-06 18:51:26N8BJQCWopsTSingle OpHP10,098new5557
2020-05-06 14:13:22N5EECWopsTSingle OpLP13,456new5557
2020-05-06 14:03:53N5PHTCWopsTSingle OpHP6,724new5557
2020-05-06 14:02:54W5TMCWopsTSingle OpHP14,884new5557
 
2020-05-06 14:02:37K4OAQCWopsTSingle OpLP6,478new5557
2020-05-06 02:44:50VE3AQ7QPSO(A)CWLP16,254move5544
2020-05-05 21:00:56NJ4PNewEngQPM/SHP10,668new5547
 (@NJ4P)
2020-05-05 20:59:30NJ4PDeQPM/SHP400new5546
 (@NJ4P)
2020-05-04 23:50:17W5TMNewEngQPSingle OpHP23,688new5547
2020-05-04 21:20:54W5TMRYOps WkEndSOABHP23,688new5549
2020-05-04 21:16:58W5TMInQPSingle OpHP280new5545
2020-05-04 21:13:37W5TMDeQPSingle OpHP2,880new5546
2020-05-04 21:09:25W5TM7QPSO(A)CWHP79,128new5544
2020-05-04 01:47:48K5XUCWopsTSingle OpLP2,350new5537
 
2020-05-04 01:45:36K5XUCWopsTSingle OpLP3,600new5536
2020-05-04 01:43:15K5XUCWopsTSingle OpLP3,712new5535
2020-05-04 00:44:27W4PMNewEngQPSingle OpHP14,168new5547
2020-05-03 22:15:46N8BJQNewEngQPSingle OpHP18,180new5547
2020-05-03 22:14:14N8BJQInQPSingle OpHP720new5545
2020-05-03 22:13:10N8BJQDeQPSingle OpHP160new5546
2020-05-03 22:12:03N8BJQ7QPSO(A)CWHP37,800new5544
2020-05-03 18:48:06NN5O7QPSO(A)CWLP20,400new5544
2020-05-03 15:33:35KM4SIIARISO MixedLP28,304new5543
2020-05-03 07:56:48NJ4P(NR4L,WV4P,K4AFE,K4HWS,WW5M)InQPDistributed M/MHP11,542new5545
 
2020-05-03 07:18:31NJ4P7QPM/MHP217,744new5544
 (NR4L,K4HWS,WV4P,WW5M,K4AFE,@NJ4P)
2020-05-01 03:03:24K4OAQNCCC SprintSingle OpLP540new5540
2020-04-30 16:13:59K0WACWopsTSingle OpHP14,632new5537
2020-04-30 04:06:00NN5OCWopsTSingle OpLP1,634new5537
2020-04-30 04:04:37W5TMCWopsTSingle OpHP13,080new5537
2020-04-30 04:03:59N8BJQCWopsTSingle OpHP10,816new5537
2020-04-30 04:02:49N5PHTCWopsTSingle OpHP7,134new5537
2020-04-30 04:02:40N5EECWopsTSingle OpLP3,249new5537
2020-04-30 04:02:18K4OAQCWopsTSingle OpLP6,864new5537
2020-04-30 04:01:14WV4PCWopsTSingle OpHP3,844new5537
 
2020-04-30 04:00:37IT9MUOCWopsTSingle OpLP729new5537
2020-04-30 03:25:48K4AFECWopsTSingle OpHP225new5537
2020-04-29 20:04:15K4OAQCWopsTSingle OpLP10,812new5536
2020-04-29 20:03:16K0WACWopsTSingle OpHP18,221new5536
2020-04-29 20:02:38N5PHTCWopsTSingle OpHP2,448new5536
2020-04-29 20:02:36IT9MUOCWopsTSingle OpLP1,936new5536
2020-04-29 20:00:09N8BJQCWopsTSingle OpHP13,340new5536
2020-04-29 19:30:26AA5WCWopsTSingle OpLP121new5536
2020-04-29 14:09:33K0WACWopsTSingle OpHP9,984new5535
2020-04-29 14:08:40N5PHTCWopsTSingle OpHP3,600new5535
 
2020-04-29 14:08:11IT9MUOCWopsTSingle OpLP2,450new5535
2020-04-29 14:02:21K4OAQCWopsTSingle OpLP8,448new5535
2020-04-29 14:01:13WV4PCWopsTSingle OpHP1,024new